RH
49 43 44 44 43 48 51 50 63 69 67 79 82 73 61 59 69 68 68 69 63 47 41 50 41 42 46 45 49 47 52 56 53 48 44 62 84 87 88 93 95 91 94 101 100 100 99 100 100 99 101 99 96 93 90 89 92 92 93 96 97 98 97 96 96 99 100 98 99 98 99 96 95 98 98 95 93 90 91 93 92 91 90 90 92 92 95 93 93 94 92 96 99 100 100 68 19
46 42 43 46 44 48 51 48 70 77 69 80 78 69 63 63 65 67 73 74 65 42 40 47 40 41 40 40 42 44 56 60 57 55 62 79 90 91 87 89 92 90 93 97 99 100 100 100 100 100 100 99 95 92 92 93 94 94 93 92 93 94 93 92 93 97 97 97 99 98 98 97 97 98 97 94 92 92 92 92 92 92 93 94 94 95 95 93 91 90 93 96 100 100 95 70 26
43 42 41 46 45 45 49 50 73 80 76 84 78 70 66 68 67 66 69 64 53 40 45 48 42 48 47 48 46 49 59 61 59 57 74 87 83 88 89 87 90 92 93 93 97 98 100 101 100 100 99 96 94 94 94 95 92 90 89 89 90 91 91 91 92 97 98 98 99 98 98 98 99 97 98 97 94 95 97 96 94 94 97 98 96 97 96 94 92 92 97 95 99 98 96 84 39
40 39 39 42 43 48 59 64 78 83 84 87 80 78 73 71 71 62 52 48 47 43 47 45 41 45 47 51 47 49 56 58 60 56 75 90 78 83 90 87 92 96 93 95 96 96 99 101 99 99 96 90 90 93 95 94 90 89 90 92 95 93 92 94 96 98 98 98 100 101 100 101 101 97 100 98 95 98 99 98 97 99 99 99 96 97 98 94 93 97 96 91 99 101 98 80 37
36 39 41 41 47 55 66 74 81 86 88 91 85 84 80 68 66 58 43 43 45 44 44 41 43 40 40 47 46 51 57 57 60 60 72 87 83 87 93 90 94 95 94 99 98 96 99 100 99 96 90 85 88 92 92 93 92 93 92 92 93 93 94 93 96 98 99 102 98 89 82 85 89 87 90 94 97 100 99 101 101 96 92 99 102 99 101 97 96 101 96 96 101 87 72 50 29
36 41 41 42 49 51 62 74 83 91 87 86 81 78 76 57 53 53 44 43 44 46 42 40 42 37 41 46 48 53 56 53 60 68 69 79 88 93 97 93 94 93 95 99 94 95 99 100 96 92 86 82 88 92 90 91 93 94 94 94 94 94 96 94 98 100 98 93 71 48 41 44 49 48 51 60 70 72 73 80 78 63 58 71 85 90 91 82 74 83 93 99 87 58 47 37 33
41 43 43 48 54 57 73 85 88 91 77 71 70 65 64 50 45 48 46 43 42 45 37 36 33 35 46 43 50 57 52 53 61 70 68 79 93 97 98 95 95 94 95 94 91 97 100 96 91 89 85 81 87 92 90 90 92 94 95 96 97 96 95 92 88 81 68 54 36 27 28 27 28 29 29 32 36 37 37 44 45 39 36 38 49 60 61 55 45 46 56 65 59 45 40 34 32
45 48 51 58 67 67 78 86 83 82 71 62 57 53 54 47 42 47 51 44 41 42 36 34 24 37 53 46 60 62 51 56 62 71 75 84 94 96 98 96 96 95 93 89 91 98 97 92 90 89 86 86 89 91 91 91 93 94 94 95 98 96 86 73 54 41 34 28 27 27 28 28 28 29 29 29 29 30 29 33 35 33 33 30 34 39 38 40 36 31 29 34 42 39 30 26 29
48 50 50 57 66 66 72 76 70 66 61 51 42 41 43 43 39 44 51 42 39 39 38 34 24 39 56 61 77 69 60 68 70 79 84 88 93 96 98 97 96 93 90 87 90 94 95 93 90 89 89 90 91 91 90 89 92 92 93 93 94 89 67 47 32 26 28 27 28 27 27 28 28 29 30 31 31 31 30 30 31 29 31 30 31 32 31 32 30 29 27 28 31 28 24 25 26
41 40 42 50 57 60 66 68 61 49 39 34 30 29 30 35 36 39 42 39 38 38 35 30 28 42 54 65 80 78 80 83 80 85 87 89 92 95 98 98 95 90 84 81 86 91 94 94 90 90 90 91 92 94 93 91 92 92 96 93 90 84 52 30 28 27 27 27 27 27 28 28 28 30 31 32 31 30 30 29 30 30 30 31 31 31 31 32 30 29 28 28 27 27 26 25 24
33 35 38 45 51 54 60 64 57 40 30 28 25 22 24 26 29 33 36 38 37 34 31 28 36 48 57 71 84 87 89 87 84 86 87 88 91 95 98 97 92 84 73 71 84 92 92 93 91 91 91 94 95 94 90 88 89 87 91 85 74 66 41 25 28 27 27 28 28 28 28 29 30 31 32 34 32 30 30 29 30 30 31 32 32 32 31 31 31 30 29 29 28 28 28 26 26
34 42 45 49 56 54 59 63 47 34 34 32 24 22 27 24 28 34 35 37 32 28 26 27 37 42 52 72 86 89 87 87 85 84 84 86 89 91 91 91 87 78 69 70 80 84 85 86 84 84 79 73 68 61 53 51 53 51 53 50 40 37 30 27 28 27 28 28 28 29 29 30 30 31 34 35 32 30 30 29 30 31 32 32 32 31 31 30 29 29 28 28 28 28 28 28 28
33 42 48 51 60 55 50 52 42 37 37 31 25 25 29 28 33 34 30 32 30 28 27 29 31 33 50 71 84 87 83 80 80 80 81 82 84 85 86 88 84 77 71 68 72 74 71 65 59 53 41 32 28 25 24 24 25 25 27 28 27 27 27 28 28 27 29 28 29 29 29 31 31 33 35 34 32 30 30 29 30 31 32 32 31 29 28 27 27 27 26 25 26 26 26 26 26
28 30 38 44 55 51 40 41 43 41 32 27 27 28 30 31 33 29 27 30 33 32 29 32 28 35 62 79 83 80 72 71 75 77 76 77 78 79 79 77 69 62 61 58 57 57 53 51 48 39 32 37 36 25 22 22 22 25 27 27 29 29 27 28 28 28 28 29 30 30 31 32 34 38 37 33 31 29 29 29 30 32 32 30 27 25 23 22 23 22 21 21 21 21 22 22 23
23 22 35 40 44 46 40 35 39 38 26 26 28 27 27 28 27 26 28 31 37 35 27 31 26 34 59 75 81 71 62 65 70 71 70 73 74 75 73 69 65 63 65 64 57 49 49 63 73 70 69 75 70 52 40 35 33 35 39 43 38 30 29 29 28 28 29 30 30 30 32 31 32 38 38 34 31 29 29 29 31 31 29 27 24 21 19 18 21 20 18 19 18 17 17 18 18
20 23 40 41 39 44 39 30 35 37 24 25 27 26 25 24 25 26 30 30 38 36 29 35 30 32 50 68 77 63 54 60 64 65 66 71 73 74 76 78 80 81 81 80 77 72 74 86 91 91 88 81 75 71 63 53 47 46 54 59 46 33 33 32 31 31 30 30 30 30 31 31 31 34 37 36 34 32 32 32 31 30 27 24 21 20 17 17 20 20 18 17 15 14 14 14 14
15 23 37 37 42 40 30 25 33 35 24 25 24 26 28 25 25 26 30 30 40 47 47 52 43 44 58 68 69 53 50 57 58 60 65 72 76 81 88 93 93 92 92 91 91 90 91 94 92 92 89 77 69 70 66 56 48 48 55 57 48 42 42 39 37 36 35 32 30 32 32 31 31 34 36 35 36 37 36 33 29 27 25 22 20 19 18 16 16 16 16 14 13 12 12 12 12
17 33 35 33 44 29 20 22 23 28 25 24 22 24 26 25 25 24 30 32 39 51 58 62 55 56 62 58 53 45 45 51 53 60 72 78 81 82 82 86 96 99 96 96 96 93 95 98 97 97 90 73 62 62 59 52 47 47 50 52 51 50 48 44 42 39 38 36 32 32 33 34 34 34 35 35 37 38 34 29 25 24 22 20 19 18 17 16 14 13 14 13 12 12 11 11 11
21 39 35 39 46 19 14 18 14 23 23 23 25 24 25 25 25 25 35 40 40 45 53 60 56 54 51 42 39 38 41 50 60 71 79 76 70 63 53 57 74 84 82 80 75 71 77 86 91 90 78 61 55 56 54 52 51 51 52 52 52 51 47 44 42 41 41 38 34 34 34 36 37 37 37 37 38 34 28 24 23 22 20 19 18 17 17 16 15 13 13 14 13 14 14 13 13
18 30 33 39 40 16 13 17 15 22 20 24 28 26 31 31 27 29 37 43 45 46 48 51 51 48 48 47 42 38 39 48 62 70 71 63 58 55 50 47 48 55 60 59 54 50 54 60 64 63 56 51 53 53 52 53 54 53 52 50 49 47 44 41 40 41 41 37 34 34 36 37 39 39 37 35 32 27 25 24 23 22 22 21 20 19 19 18 17 15 15 16 17 18 17 17 16
14 27 36 32 24 16 16 18 19 21 20 25 27 28 38 38 33 34 36 45 55 53 47 44 47 47 48 51 49 44 39 41 48 53 55 51 49 52 52 50 45 44 46 47 49 50 50 50 51 51 50 51 53 52 52 51 50 50 49 48 48 47 45 42 42 43 40 36 32 32 32 34 34 33 31 29 27 26 26 26 26 25 25 25 24 23 22 22 21 19 19 19 21 20 19 19 19
13 19 27 22 15 17 18 18 21 21 21 24 27 30 36 39 43 46 45 55 61 57 52 48 47 48 46 49 49 45 40 40 43 44 46 45 44 46 47 49 48 46 45 46 47 48 50 50 51 51 50 51 50 48 47 46 45 46 47 48 49 49 47 46 45 44 39 33 31 30 30 31 32 31 31 31 31 31 31 30 30 30 29 29 28 27 26 25 24 23 22 21 21 21 20 19 19
17 18 16 16 15 18 20 22 22 20 23 28 31 34 37 42 50 53 53 57 57 54 54 50 49 48 46 47 46 44 43 43 44 44 44 43 43 44 45 46 45 46 48 50 47 48 49 48 50 48 48 48 46 45 42 41 42 42 46 50 51 50 49 47 45 42 37 34 34 35 37 36 37 38 38 38 37 36 35 35 34 33 32 32 31 30 29 28 27 26 24 23 22 21 21 20 20
21 23 17 17 19 23 24 24 24 23 28 31 33 37 41 48 52 53 53 53 52 51 51 48 48 47 44 45 46 46 46 45 46 46 45 44 44 44 44 44 45 45 46 48 47 47 46 46 49 47 46 47 45 47 44 42 44 46 50 52 52 51 49 46 42 40 39 39 39 40 41 41 40 40 40 39 38 37 36 35 34 34 33 33 32 31 31 30 28 27 26 26 25 24 23 22 22
25 24 17 20 25 27 26 25 25 28 34 31 33 43 48 49 50 52 53 51 50 48 48 47 46 44 43 46 48 49 47 47 47 47 47 46 46 46 46 46 46 45 44 47 48 46 46 48 49 46 47 49 49 51 48 48 51 53 54 52 51 49 47 45 42 43 43 42 42 41 41 40 39 38 38 37 35 34 34 33 33 33 32 32 32 31 30 30 29 29 28 27 27 27 26 25 24
22 18 16 20 25 26 25 27 27 29 33 30 35 46 48 43 44 53 52 49 49 45 45 45 44 43 46 48 49 50 49 49 48 48 49 49 48 46 47 47 46 45 46 48 48 48 52 52 50 49 51 53 54 55 52 53 53 52 50 48 47 45 44 43 42 42 40 39 38 38 37 35 35 34 34 33 32 32 31 31 31 31 31 31 31 31 30 30 29 29 29 28 28 28 28 28 27
16 16 17 19 24 26 26 27 27 31 31 29 38 48 46 39 44 57 53 48 47 42 45 45 43 46 48 49 50 50 50 50 50 49 49 48 47 46 47 46 44 46 48 47 48 50 53 53 51 51 53 53 53 52 50 50 48 47 45 44 44 42 40 38 38 37 35 35 34 34 33 32 32 31 30 30 29 29 29 29 29 29 29 30 30 30 30 30 30 29 29 29 29 29 28 28 28
15 16 20 23 24 24 27 29 26 30 33 29 35 45 49 46 52 59 51 47 44 41 47 47 46 49 48 48 49 49 50 50 50 48 47 47 46 46 45 45 45 47 47 46 48 50 49 49 49 50 51 50 50 48 47 46 44 43 41 40 40 38 37 36 36 35 35 34 34 34 33 32 31 30 29 28 28 28 27 27 27 27 27 28 28 29 29 29 29 29 29 29 28 28 28 28 28
16 18 25 26 28 29 26 27 25 25 34 29 30 48 56 56 57 54 47 46 44 42 48 49 48 50 48 49 48 48 49 48 48 47 47 47 47 46 45 46 46 45 46 49 50 49 48 49 49 50 49 49 48 46 45 43 41 40 39 39 39 38 38 38 37 36 36 34 34 34 33 32 30 30 29 27 27 26 25 25 25 26 26 26 26 27 28 28 28 29 28 28 28 28 28 28 28
18 22 29 32 39 45 31 27 26 25 34 26 31 64 70 60 54 49 47 45 41 45 50 51 51 51 49 49 49 49 49 48 48 47 48 49 48 48 47 48 48 47 49 51 50 49 50 50 49 49 48 47 46 45 44 43 42 41 41 40 39 40 39 38 37 35 34 33 32 32 31 30 28 28 27 26 26 25 24 24 23 24 24 24 25 25 26 26 26 27 27 27 27 28 28 28 28
32 31 43 57 50 42 35 34 32 30 35 25 36 75 75 59 55 48 47 43 40 47 52 52 52 52 52 50 49 49 49 49 49 50 51 51 52 51 50 51 51 51 52 51 50 50 51 50 49 48 47 47 46 45 45 44 44 43 42 41 40 40 39 38 37 35 33 31 30 29 28 27 26 26 25 25 24 23 23 22 22 22 22 22 23 23 23 24 24 24 24 25 25 26 26 26 26
59 47 54 71 52 35 38 40 39 36 35 30 44 74 75 62 57 49 47 44 42 48 52 54 54 53 53 52 51 50 50 50 51 52 54 54 54 54 53 53 54 53 53 52 51 51 51 50 49 49 48 47 47 46 46 45 44 43 42 41 40 39 38 37 35 33 31 29 27 26 25 24 24 23 22 22 22 21 21 20 20 20 20 20 19 20 20 20 20 20 20 20 21 22 22 23 22
70 61 53 53 46 43 46 42 42 39 37 42 51 69 76 66 57 50 49 47 45 50 52 53 55 55 55 54 54 54 54 54 55 56 57 57 56 56 55 55 55 55 54 53 53 52 51 50 50 49 49 48 47 47 46 45 43 43 42 40 39 38 36 34 31 29 27 26 25 23 23 22 21 20 20 19 19 19 18 18 17 16 16 16 15 16 15 15 15 15 15 15 15 16 17 17 17
61 67 60 48 50 52 52 48 45 45 47 54 57 65 74 65 56 52 50 48 47 51 53 53 55 56 57 58 58 58 58 58 60 61 61 59 58 58 58 57 56 55 55 54 53 53 52 51 50 50 49 48 48 47 45 44 43 41 40 38 36 34 32 30 27 26 25 24 23 22 21 20 19 18 17 16 16 16 15 15 14 14 13 13 13 12 11 11 10 10 10 10 10 10 10 11 12
48 57 55 47 55 58 63 58 48 51 58 63 64 69 73 65 58 54 51 49 50 52 53 53 54 55 57 59 60 61 61 61 62 63 62 61 60 59 59 58 58 57 56 55 54 54 52 52 51 49 49 48 46 45 43 41 39 38 36 34 33 31 29 28 26 25 24 23 21 20 18 17 15 14 13 13 13 13 12 12 11 11 11 11 11 10 10 9 8 8 8 7 8 7 7 7 8
48 55 57 54 58 61 65 60 50 53 62 68 70 72 73 68 63 57 53 51 51 53 54 54 54 55 57 58 59 61 61 62 63 64 63 62 61 60 60 59 59 58 57 56 55 54 53 52 51 50 48 47 45 42 39 37 35 34 32 30 30 29 28 27 26 24 22 20 18 15 14 12 11 10 10 9 10 10 9 9 9 9 10 10 10 9 9 9 8 8 7 7 7 7 7 7 6
58 61 63 63 66 63 57 55 55 56 67 74 71 73 74 70 67 59 54 54 55 57 56 56 56 55 57 57 59 60 61 63 65 65 64 63 62 61 61 60 59 59 57 56 55 54 54 53 51 50 48 45 42 38 35 32 30 29 29 28 29 29 29 28 25 22 19 16 13 12 10 9 8 8 8 8 8 8 8 9 9 9 9 9 9 10 10 10 8 8 8 8 8 7 7 7 8
66 59 54 58 64 65 56 57 60 54 69 78 70 76 78 71 69 60 56 58 58 59 58 59 58 57 58 58 59 61 63 66 67 67 65 64 64 62 62 61 60 59 58 57 56 55 55 54 52 50 47 43 38 33 30 28 28 29 31 31 32 31 29 25 21 17 14 12 10 9 8 7 7 7 7 7 8 8 10 13 13 13 13 11 10 11 13 11 9 9 8 8 8 8 8 8 8
60 57 62 63 61 66 61 62 67 59 70 80 74 79 78 70 69 61 58 59 56 55 56 57 58 59 60 59 61 63 65 67 68 67 66 65 65 64 63 62 61 60 59 59 58 59 58 57 56 52 49 44 36 30 27 27 30 34 36 36 34 30 24 18 14 11 10 9 8 7 7 7 7 7 8 8 9 12 15 18 20 20 20 18 15 16 16 12 10 10 9 9 9 8 9 9 9
51 49 59 56 48 63 67 63 69 67 68 74 76 81 78 71 69 66 60 57 56 55 54 55 56 58 58 58 59 61 63 65 67 66 65 66 65 65 64 63 63 61 61 62 63 64 64 62 60 56 53 46 37 30 27 29 34 38 38 36 32 24 17 12 10 9 8 8 7 7 7 7 8 8 9 10 11 15 19 22 26 27 28 28 26 25 21 16 13 12 10 10 10 9 9 8 9
60 55 54 49 43 58 68 65 67 68 68 70 73 77 78 77 75 72 65 60 60 56 56 57 56 56 56 57 58 59 60 60 62 64 64 65 64 65 66 64 64 64 65 66 68 68 67 66 63 61 58 49 39 33 30 31 37 40 35 30 24 17 12 9 8 8 7 7 7 7 7 8 9 8 9 11 13 17 22 26 31 35 39 42 40 34 27 22 19 14 11 11 11 12 11 10 10
61 51 48 50 50 58 67 68 70 76 76 71 67 62 67 81 83 76 71 70 68 62 60 59 57 58 57 58 59 58 58 58 59 61 61 62 63 64 65 64 65 66 68 69 69 69 68 68 68 65 60 52 43 38 34 35 40 39 30 24 20 15 11 8 7 7 7 8 7 7 8 8 8 9 9 11 13 16 21 27 36 43 48 52 51 42 33 28 22 15 13 13 13 14 15 14 12
48 36 52 59 60 65 67 69 75 82 77 67 64 57 60 78 81 76 75 76 74 69 66 62 57 58 58 57 58 57 58 58 58 60 60 61 62 63 64 65 66 67 69 70 67 65 64 65 64 61 57 54 48 43 38 36 39 37 28 23 22 16 11 8 8 8 8 8 8 8 9 8 8 9 9 10 12 14 20 27 35 42 47 52 52 44 36 30 22 17 15 15 16 16 17 17 15
34 35 63 66 61 63 65 68 70 75 69 63 68 62 62 75 75 72 77 79 79 76 73 69 61 59 58 57 57 57 57 58 59 60 61 62 62 64 65 65 68 69 69 65 56 53 54 55 56 57 58 56 52 47 42 37 35 34 26 21 20 15 10 8 8 8 8 9 9 9 9 9 9 9 10 11 12 14 20 28 33 38 43 47 47 43 36 28 21 18 17 17 18 18 19 20 19
40 50 62 62 62 64 68 67 64 66 61 59 66 64 64 72 74 76 79 80 83 79 75 72 66 60 58 58 58 57 57 58 60 60 61 63 63 64 66 68 70 66 59 52 50 53 56 58 60 62 61 58 54 49 45 39 34 31 26 21 17 12 8 8 8 9 9 10 10 10 10 10 9 10 11 11 12 13 17 25 31 36 40 42 42 38 31 24 21 19 19 19 19 19 21 22 21
46 57 64 69 72 73 70 64 66 69 61 57 60 58 58 62 75 86 83 82 82 74 71 70 65 61 58 58 58 58 60 59 60 62 61 62 63 65 69 71 66 58 54 55 59 64 65 66 67 65 62 58 55 52 48 42 36 32 29 24 19 12 8 8 9 9 10 10 11 11 11 11 11 11 11 12 13 13 15 20 27 32 35 36 36 32 26 22 21 20 20 21 21 21 22 23 23
41 55 64 56 52 64 72 76 79 69 63 67 60 50 46 48 68 83 80 79 77 68 69 69 65 63 59 58 59 58 60 60 60 61 61 62 64 68 71 68 61 59 63 67 68 69 70 70 68 65 63 58 55 54 51 45 40 35 33 31 25 15 8 9 10 10 11 11 12 12 13 14 13 13 13 12 13 14 15 18 23 27 28 29 29 27 25 23 22 22 22 22 23 23 24 24 24
37 45 44 25 25 44 56 71 73 53 49 60 56 46 41 44 59 70 69 73 75 70 70 69 67 66 60 57 58 58 58 58 59 60 62 64 65 68 71 66 62 65 70 71 71 72 71 67 65 63 61 59 57 56 53 48 43 40 38 38 36 23 11 9 11 11 12 13 14 15 16 16 16 16 15 14 14 15 16 18 21 24 24 25 26 26 26 26 25 24 24 24 25 26 26 26 27
33 42 48 41 43 43 42 58 54 38 40 42 40 37 34 39 48 57 62 64 71 70 63 62 62 61 59 57 56 56 57 57 59 61 61 63 64 66 67 65 66 68 70 72 73 72 69 64 61 61 60 59 58 56 54 50 46 44 41 43 45 34 16 10 12 13 14 14 16 19 20 21 22 20 18 17 17 18 18 20 22 24 26 27 28 28 29 28 28 27 27 27 28 29 28 30 31
33 44 53 54 55 38 35 56 43 30 44 41 33 36 42 40 37 54 69 60 60 61 55 55 54 52 52 53 54 55 57 58 59 60 61 61 63 64 66 67 69 71 72 73 72 69 66 61 60 60 59 58 56 56 54 51 50 49 46 47 51 42 22 11 11 12 13 14 16 20 24 27 28 25 23 22 22 23 23 24 26 27 29 30 30 31 30 30 30 30 30 31 32 32 32 33 33
43 51 50 47 58 42 28 46 45 42 58 52 33 36 53 50 41 63 76 62 59 57 56 58 54 53 52 50 54 55 56 58 58 60 60 60 61 64 67 69 71 74 73 69 66 64 61 59 60 59 57 56 56 56 55 53 54 54 53 53 52 44 26 11 11 14 15 16 19 23 28 31 32 29 27 26 27 29 29 28 29 28 30 31 31 31 30 31 32 32 34 35 36 36 36 36 36
33 47 45 39 55 58 46 53 63 61 64 70 58 46 56 55 55 77 75 63 67 61 59 63 57 57 57 54 58 56 57 59 57 59 60 59 62 65 67 70 73 72 66 61 59 57 56 58 58 56 55 56 57 56 55 56 57 59 59 56 52 46 27 12 12 17 20 21 23 26 29 32 33 31 29 30 31 33 32 30 30 30 31 32 32 33 33 34 35 36 37 38 38 39 39 39 39
25 35 35 37 45 59 57 48 60 63 50 59 55 37 43 41 44 74 77 70 75 68 65 66 59 60 59 58 59 57 58 57 55 57 57 58 60 63 68 72 70 63 56 53 51 50 52 54 54 54 55 57 56 55 56 59 62 63 61 56 54 47 26 11 15 21 24 25 25 28 31 34 34 32 31 32 33 34 33 32 32 32 33 34 35 36 36 38 39 39 40 40 40 41 41 42 42
34 30 30 45 47 54 54 38 53 66 47 47 45 36 45 36 32 65 82 78 78 74 72 68 63 63 61 61 59 55 54 52 52 55 54 57 60 63 68 65 58 53 48 46 44 44 49 51 52 55 55 56 56 57 61 63 64 64 60 56 57 46 22 11 17 22 26 28 28 31 36 37 36 33 32 33 34 36 35 34 35 35 35 37 38 38 40 43 44 43 43 43 43 43 44 44 44
34 29 28 42 44 48 52 40 47 51 38 51 62 55 51 43 46 62 67 72 73 70 74 73 69 66 59 58 55 51 51 50 52 54 54 59 61 61 60 54 49 47 42 40 40 43 48 51 53 55 56 57 59 62 65 65 64 62 58 59 57 39 16 11 18 22 27 31 31 34 38 39 37 34 34 34 35 37 38 38 38 37 39 41 41 41 44 46 46 46 46 45 45 45 46 45 45
38 38 36 47 59 62 52 43 52 52 46 60 67 63 52 43 53 54 43 56 65 63 71 72 67 62 54 50 47 45 47 47 50 53 56 59 56 53 50 46 45 42 40 40 41 46 49 51 54 56 58 61 63 66 66 64 64 60 59 61 51 27 12 13 19 23 28 29 30 33 36 38 37 35 35 36 39 42 43 43 40 38 42 46 46 45 46 48 49 49 48 47 47 47 47 48 47
42 43 39 41 49 53 44 45 65 63 57 64 59 58 52 36 45 51 38 46 56 59 66 65 61 55 45 42 41 41 42 45 48 51 53 52 48 48 46 43 43 42 42 43 43 48 50 51 56 58 61 64 65 66 65 64 63 60 62 56 35 16 12 16 21 25 29 28 28 30 32 34 35 34 38 42 46 48 48 46 42 41 45 49 50 48 48 50 51 51 49 49 49 50 50 51 50
45 44 45 44 44 46 33 38 65 63 60 73 60 43 34 26 41 49 37 41 53 55 57 57 53 44 36 37 38 38 41 43 46 45 46 47 45 46 45 43 44 43 44 44 45 48 49 52 57 60 64 66 65 67 66 64 62 61 57 39 18 12 15 18 23 27 28 27 28 30 31 33 34 36 44 49 51 51 50 48 44 44 49 51 52 52 53 54 53 51 51 50 51 52 53 54 54
Wind_Speed
4 3 4 4 6 8 7 7 1 2 1 0 2 1 2 1 1 2 1 2 2 1 2 3 3 1 3 9 14 13 10 3 1 2 4 9 15 16 14 14 14 13 13 14 14 12 11 12 10 9 9 9 10 10 11 10 10 9 9 9 11 11 11 12 12 13 13 12 13 12 12 13 13 13 13 13 12 12 11 11 11 10 10 10 10 10 10 10 10 11 10 10 13 12 13 13 10
4 3 4 4 6 7 7 6 1 1 1 2 2 2 2 1 2 3 2 3 4 3 5 8 10 12 14 16 13 11 12 9 7 11 15 18 20 17 13 13 13 12 11 12 14 12 12 12 10 10 9 10 10 11 11 9 8 8 8 10 11 10 11 11 11 12 13 12 13 13 13 14 14 13 13 13 12 11 11 10 10 10 9 10 10 9 9 9 10 9 9 10 12 10 11 13 11
4 4 5 6 6 3 3 4 1 1 2 2 3 2 2 3 4 5 7 8 7 7 10 10 9 8 7 9 8 6 7 11 16 19 21 20 19 18 15 12 11 11 8 8 10 8 10 12 8 10 10 11 11 10 10 7 8 9 10 11 11 10 11 11 10 12 13 13 14 14 14 14 15 14 14 14 11 10 10 9 9 10 9 10 9 9 8 8 8 8 10 10 10 10 11 13 11
3 4 4 5 4 1 1 2 1 2 2 2 3 3 2 4 6 6 9 10 8 11 10 7 5 4 7 8 6 8 7 9 15 17 20 19 15 18 17 13 12 10 6 5 5 3 10 11 9 11 11 12 11 8 8 7 8 10 10 11 12 11 11 11 11 12 14 14 15 15 15 14 14 14 14 14 11 11 13 12 11 11 11 11 11 10 9 9 8 9 10 8 8 10 12 12 11
3 4 4 4 3 1 1 1 1 2 2 3 2 4 3 4 6 6 8 9 10 11 8 5 4 6 12 12 6 5 6 8 13 14 19 17 14 18 18 15 13 9 5 5 3 4 11 12 11 12 12 13 9 6 9 10 10 10 11 10 11 11 11 11 11 12 14 14 14 14 14 13 13 13 13 14 12 13 14 13 13 12 12 12 12 11 10 10 9 9 8 7 8 10 11 10 10
4 5 5 3 3 2 2 1 0 1 4 4 3 5 3 5 10 8 7 7 6 7 6 6 8 11 13 13 12 8 5 6 12 15 16 16 16 18 18 16 12 9 6 5 4 8 13 12 12 12 13 11 6 8 10 10 11 11 11 10 11 11 11 11 12 13 13 12 13 14 14 14 14 14 13 13 12 13 13 12 12 12 13 12 11 10 11 10 9 9 8 8 9 10 11 10 9
6 5 3 3 2 1 2 2 2 3 4 6 5 5 5 8 13 11 8 6 4 3 6 10 15 16 9 5 10 11 6 5 12 16 14 16 18 18 18 15 12 10 7 6 9 13 14 12 12 12 14 11 8 9 10 11 11 11 11 11 11 12 11 11 12 12 11 12 14 15 15 15 15 15 14 13 13 13 12 12 13 13 14 13 12 11 11 12 11 11 9 9 10 10 10 9 8
8 4 1 2 1 1 2 3 3 3 3 5 3 3 6 10 15 12 6 4 4 4 9 12 13 11 6 6 9 10 9 8 13 16 15 17 18 18 16 13 13 11 9 9 13 15 15 13 12 11 12 12 9 9 10 10 11 12 11 11 12 12 11 10 10 11 12 13 14 14 14 14 14 14 13 13 13 13 13 13 14 14 14 14 13 13 13 13 12 12 11 11 11 10 9 8 8
8 4 1 2 2 1 1 1 1 3 3 4 3 3 6 11 14 10 5 3 6 7 7 6 7 8 9 17 15 12 15 13 17 18 17 18 17 16 14 12 11 11 11 12 14 16 16 14 12 11 11 11 10 10 10 10 11 11 11 11 12 11 10 9 11 12 12 12 12 12 12 12 12 12 12 12 12 13 13 13 14 14 14 14 14 14 14 14 13 12 12 12 12 11 10 9 8
6 4 2 1 1 1 3 2 1 3 2 2 4 7 7 8 9 8 7 5 8 13 12 9 12 15 14 16 13 15 19 16 19 19 17 16 14 13 12 11 9 9 12 14 16 18 17 13 11 11 10 11 10 11 11 11 11 11 11 11 10 10 9 9 10 10 10 11 11 11 10 10 10 10 10 10 11 12 12 13 14 14 14 14 14 14 14 14 14 13 12 12 12 12 11 10 9
3 3 3 1 1 2 3 1 2 3 3 3 5 11 9 9 9 7 9 8 9 12 10 11 15 21 19 13 12 16 18 16 17 18 15 14 12 12 12 12 10 9 12 14 17 18 17 15 13 13 12 12 11 12 11 11 11 10 10 9 9 10 9 9 9 8 9 9 9 9 9 9 9 9 9 9 10 11 12 13 14 15 15 15 15 14 14 14 14 14 13 12 12 12 11 11 10
2 1 3 2 2 3 3 2 3 2 4 4 5 9 10 12 10 8 12 11 9 10 11 8 14 19 15 9 12 16 16 14 14 16 15 14 13 12 12 12 11 10 11 13 15 16 15 14 12 11 10 10 10 10 9 9 8 8 8 8 8 8 8 7 7 7 7 8 8 8 8 9 10 10 9 9 10 11 12 13 14 15 15 16 15 15 15 14 14 14 13 13 12 12 11 11 10
5 1 4 2 2 3 3 3 3 2 4 3 3 8 13 15 11 9 16 18 16 12 13 9 17 14 11 9 15 18 15 13 13 15 14 14 14 12 11 10 10 10 10 11 12 11 9 8 8 7 7 8 8 8 8 7 7 7 7 7 7 7 6 6 5 6 6 7 7 8 8 10 11 11 10 11 11 12 12 13 15 16 16 16 16 16 15 15 14 13 13 13 13 12 12 11 11
7 1 4 2 1 1 2 2 2 4 2 1 4 12 17 16 14 15 19 18 18 11 9 11 15 12 15 13 14 18 16 14 14 14 14 13 13 12 11 10 11 10 9 8 8 8 8 9 9 9 9 9 8 8 8 7 7 6 6 6 5 5 4 4 4 5 5 6 6 7 7 8 9 10 11 11 12 13 13 15 16 17 17 16 15 15 14 14 13 12 12 12 12 12 12 11 11
8 2 4 1 2 2 1 2 2 5 2 3 8 20 25 19 20 25 21 14 15 10 8 12 10 8 13 13 13 19 18 17 17 15 15 15 14 14 14 14 15 15 14 13 12 10 10 11 11 11 10 10 9 8 9 9 8 7 8 6 3 3 3 3 4 5 4 4 5 6 7 8 9 10 12 13 14 15 16 17 17 17 17 17 16 15 14 13 12 12 12 12 12 12 12 11 11
7 3 4 1 1 3 2 2 3 6 3 4 10 24 26 22 30 31 21 19 23 20 14 15 12 10 16 20 21 23 21 20 18 16 16 16 16 17 17 18 19 18 17 16 16 13 11 11 11 11 10 11 10 9 8 8 8 8 8 5 2 2 3 3 4 4 4 5 6 7 8 9 11 12 13 15 16 17 17 17 18 17 17 17 16 16 14 13 12 12 12 12 12 12 12 11 11
5 2 3 1 1 2 2 2 3 6 3 6 8 16 16 14 26 29 28 33 31 29 28 25 20 21 24 26 26 25 23 21 18 16 16 17 17 18 18 17 18 18 16 15 15 12 10 10 11 11 11 11 10 9 7 6 6 6 5 2 3 3 4 4 5 6 6 6 7 8 9 10 11 12 13 14 15 16 17 17 17 17 17 17 17 16 16 14 13 13 13 12 12 12 12 12 11
4 2 3 2 2 1 2 3 4 7 3 7 14 14 15 8 10 17 26 31 28 31 33 31 29 29 29 27 25 24 22 19 16 16 19 21 22 23 22 19 19 18 16 15 14 12 11 10 11 11 10 10 9 8 6 5 5 4 3 2 3 3 5 6 7 8 8 8 8 8 9 10 11 12 13 14 15 15 17 17 18 18 18 18 17 17 17 16 15 13 13 13 13 13 13 13 12
4 3 3 3 3 0 4 2 5 11 10 12 19 21 21 10 7 16 18 19 25 25 22 29 33 29 27 25 25 25 22 21 20 22 26 27 26 26 25 24 23 22 21 20 19 17 15 15 14 12 11 11 9 7 5 4 3 1 1 1 3 4 6 8 9 9 9 8 8 8 9 10 10 12 13 14 15 15 16 17 17 17 17 18 18 18 18 18 17 15 14 14 13 13 14 13 13
3 4 3 4 6 2 10 11 15 19 21 19 18 27 32 19 11 16 18 21 26 20 14 19 26 25 24 23 24 23 23 24 24 26 27 26 25 24 23 24 25 25 24 23 22 19 18 18 18 15 13 11 7 6 3 1 0 2 3 4 5 6 8 9 10 9 9 9 8 8 8 9 10 11 13 14 14 15 15 16 16 16 17 18 18 19 19 19 19 18 16 15 15 15 15 15 14
2 4 3 5 8 5 12 16 24 23 26 24 20 29 29 26 22 16 19 19 16 17 18 19 23 26 25 23 22 22 23 24 24 24 25 24 24 23 22 22 22 23 23 21 20 18 17 16 16 14 12 9 6 4 3 3 3 5 5 6 7 8 9 9 9 9 8 8 8 8 8 9 10 11 12 13 14 15 16 16 17 18 18 19 20 20 20 20 20 19 19 18 17 17 17 17 16
3 4 3 8 10 8 10 19 25 22 26 24 21 22 16 24 31 27 29 18 6 14 21 25 27 27 27 26 26 24 26 26 25 25 24 25 24 23 23 22 22 21 19 18 17 16 14 13 11 9 7 6 4 4 4 5 5 6 6 7 8 8 9 8 8 7 7 6 6 6 7 8 9 10 11 12 14 15 16 18 19 20 20 21 22 22 22 22 22 21 21 21 20 20 20 19 19
3 5 7 10 15 13 13 22 23 25 29 22 19 22 23 30 26 29 38 23 14 20 23 29 29 28 29 28 28 27 28 27 27 26 25 26 25 24 23 21 20 18 17 16 15 13 11 9 7 5 4 4 3 3 4 5 6 6 6 6 7 7 6 6 6 6 6 6 6 7 8 9 11 12 13 14 16 17 18 19 21 22 22 22 23 23 23 23 24 24 23 23 23 23 22 22 21
5 5 9 17 25 23 23 28 28 33 34 26 28 29 28 31 19 24 34 23 22 26 26 30 28 29 28 28 29 28 29 28 27 26 25 25 24 23 22 20 19 16 15 15 13 11 8 7 5 3 3 2 3 2 3 4 4 4 4 4 5 5 5 5 5 6 7 9 10 11 12 14 15 16 17 18 19 20 20 21 22 23 23 23 23 24 24 24 24 25 25 25 24 25 24 24 24
5 6 10 19 26 27 31 35 35 38 35 35 41 33 29 33 27 26 24 20 25 25 26 28 27 27 27 28 29 27 28 27 26 25 24 23 22 22 20 19 18 15 14 13 11 9 7 6 4 3 2 2 2 2 3 3 2 2 2 3 4 6 7 8 9 10 11 13 14 15 16 17 19 19 20 20 21 22 22 22 23 23 24 24 24 24 24 24 25 25 25 26 26 26 26 26 26
4 11 16 20 23 24 31 31 29 32 30 37 37 23 22 22 20 22 16 18 22 22 24 23 23 25 26 27 26 26 26 25 24 23 22 21 19 18 18 16 14 12 12 12 9 8 8 6 5 4 3 2 2 2 1 1 0 1 3 5 7 9 11 12 12 13 15 16 17 18 19 20 21 21 22 22 23 23 23 24 24 24 24 24 24 24 24 25 25 25 26 26 27 27 27 27 27
14 21 21 23 22 18 27 29 29 30 27 37 32 15 18 12 9 10 9 16 17 18 22 19 21 24 24 24 23 23 22 22 21 20 20 18 16 15 15 12 10 10 10 9 8 8 8 5 4 4 4 3 3 2 3 3 4 5 7 9 11 12 14 15 16 16 17 18 19 20 20 21 22 23 23 24 24 25 25 25 26 26 26 26 26 26 26 26 26 26 27 28 28 28 28 28 28
26 29 20 18 22 18 23 26 25 25 22 36 37 20 24 19 11 8 8 15 13 16 21 19 21 22 22 21 21 20 19 20 17 15 15 14 13 12 11 10 9 10 9 8 8 8 6 5 5 6 6 5 4 5 6 7 8 10 11 13 14 15 17 18 19 19 20 21 22 23 23 24 25 26 26 26 27 27 27 27 28 28 28 27 27 27 27 27 28 28 28 28 29 29 30 29 29
25 26 14 9 15 11 9 9 11 16 13 15 19 15 17 14 9 10 12 16 13 17 21 19 21 20 20 19 18 18 17 16 12 12 12 12 12 10 10 10 9 9 9 9 8 7 6 6 6 6 6 6 6 7 8 9 11 13 14 16 17 18 20 21 22 23 24 25 26 27 27 27 28 28 28 28 29 29 29 29 30 29 29 29 29 29 28 29 29 30 30 30 31 31 31 31 31
13 12 9 6 6 5 8 4 5 10 3 6 2 5 6 5 8 10 11 13 12 17 19 19 20 18 18 17 17 17 15 13 11 11 12 12 12 10 11 12 10 9 10 10 7 6 6 6 6 6 6 6 7 8 10 11 14 16 18 19 21 22 23 24 25 26 26 27 28 29 30 29 29 30 30 30 30 30 30 30 31 31 31 30 30 30 30 30 31 32 32 33 33 33 33 33 33
4 4 3 2 3 1 8 12 4 5 9 4 6 6 2 3 7 7 8 9 10 17 18 17 17 17 17 16 15 15 14 12 12 13 13 12 12 11 12 12 11 10 9 8 6 6 6 5 5 5 6 8 9 11 13 15 17 19 21 22 24 25 26 26 27 28 29 29 30 30 31 31 30 31 31 31 31 31 31 31 31 31 31 31 31 30 30 31 32 32 33 34 34 34 34 34 34
4 3 0 4 3 4 4 17 13 2 7 14 11 6 2 4 6 7 9 9 11 18 17 15 16 15 15 14 14 15 14 14 14 14 14 13 12 12 11 11 10 9 8 7 5 5 4 4 6 7 9 11 13 15 17 19 21 22 24 25 26 28 28 29 30 30 31 31 31 31 31 31 30 30 31 31 31 31 31 30 30 31 30 30 30 30 30 30 31 31 32 33 34 35 35 35 34
4 3 2 1 4 3 1 12 19 6 3 15 10 8 4 3 7 9 10 10 14 18 17 15 15 14 14 14 14 15 15 15 15 15 14 13 12 11 10 10 9 7 6 5 4 3 4 6 8 9 12 14 16 18 20 22 24 25 27 28 29 30 31 32 32 32 33 32 32 32 31 31 30 29 29 29 29 29 29 28 28 28 28 28 28 28 28 28 29 30 30 30 32 33 34 34 35
5 3 3 1 4 3 1 4 16 16 10 10 11 10 6 4 9 11 11 11 13 17 16 14 14 14 14 15 15 16 16 17 16 15 14 12 11 10 9 8 6 5 3 2 2 3 5 8 10 12 14 16 18 20 22 24 25 27 28 29 30 31 31 32 33 33 33 32 31 31 30 29 29 28 27 27 27 27 27 26 26 26 26 26 26 26 25 25 26 27 29 29 29 30 31 32 33
1 1 2 2 3 4 3 1 6 14 14 11 11 10 6 5 7 11 12 10 12 16 15 13 14 14 14 15 16 16 16 16 16 14 13 11 10 9 7 6 4 2 0 1 3 5 7 10 12 14 16 18 20 22 24 25 27 28 28 29 30 30 31 31 32 32 32 31 29 29 29 28 27 27 26 26 26 25 25 25 25 24 24 24 24 24 23 23 24 24 26 27 26 27 28 28 30
5 3 3 4 4 3 3 3 4 12 14 8 8 8 6 5 5 9 12 11 13 15 14 14 14 13 14 15 15 16 16 15 14 13 12 10 9 7 6 5 3 2 2 4 6 8 9 12 14 16 18 20 22 24 26 27 29 29 30 31 31 30 30 30 30 31 31 30 28 27 28 27 26 26 25 25 26 25 24 24 24 24 23 23 22 23 22 22 23 23 24 25 25 25 25 25 27
5 4 5 5 6 4 2 3 3 9 10 5 5 7 5 5 5 8 13 13 14 15 14 14 14 14 15 15 16 16 15 15 13 12 11 10 9 7 6 5 4 4 5 6 8 10 12 14 16 18 20 22 25 26 28 30 31 32 32 32 32 31 30 29 29 29 29 27 26 26 26 26 26 25 25 25 26 25 25 25 25 24 24 23 22 22 21 21 22 22 22 23 23 24 24 23 24
5 6 6 6 4 3 3 3 2 4 7 2 3 7 4 4 5 9 14 13 13 16 16 16 16 15 16 16 17 16 15 15 14 13 12 11 10 8 7 7 6 6 7 8 10 12 14 16 18 20 22 24 27 28 30 31 31 31 31 31 30 30 28 28 27 26 26 25 24 24 24 25 25 24 24 25 25 25 24 25 25 26 25 25 24 23 22 22 22 21 22 22 22 23 23 22 22
6 4 5 5 4 4 4 4 5 5 6 4 4 5 3 4 3 8 13 12 12 16 14 15 17 17 18 18 18 18 17 16 16 14 14 13 11 10 9 9 8 9 9 11 12 14 16 18 20 22 24 26 28 30 31 31 31 29 28 28 28 28 27 26 25 23 23 23 22 23 23 24 24 24 23 23 24 23 24 25 25 26 27 27 27 25 24 23 23 22 21 22 23 22 21 21 20
5 4 5 3 3 4 2 2 5 5 4 6 7 4 1 3 2 4 10 11 12 15 13 13 15 16 17 19 19 20 20 19 18 17 16 15 14 13 12 11 11 11 13 14 15 17 19 21 22 24 26 29 29 30 32 31 30 27 26 26 26 25 24 23 22 21 21 22 22 23 23 24 25 24 23 22 22 23 24 24 25 26 27 27 28 27 26 25 25 24 22 22 22 22 22 21 18
3 3 5 3 3 4 4 4 3 5 6 5 7 3 2 4 4 4 6 8 10 14 16 16 17 16 15 17 20 20 20 20 19 19 18 18 17 16 15 14 14 15 16 18 19 20 21 23 25 27 29 30 30 30 31 31 28 26 25 26 25 24 23 22 22 22 21 22 23 23 24 25 26 26 23 21 21 22 23 24 25 26 26 27 27 27 28 27 26 25 23 22 21 20 22 22 19
4 1 4 6 5 7 8 7 4 5 3 4 5 2 3 4 6 6 5 5 7 12 17 20 21 20 19 21 22 22 21 20 20 20 20 19 19 19 18 17 17 18 19 21 21 21 23 25 27 30 31 31 30 30 30 29 26 25 27 28 28 28 27 25 24 24 23 23 23 24 24 25 26 26 24 22 21 21 23 23 23 24 25 25 26 27 28 28 27 25 23 22 21 19 20 22 21
2 2 4 6 7 9 11 8 3 3 2 4 4 2 2 3 6 8 6 5 7 9 14 20 23 24 24 26 25 24 23 22 21 20 20 21 21 21 20 18 18 20 21 22 23 23 25 27 29 31 32 32 30 29 30 29 26 26 28 30 30 30 30 28 25 24 24 23 24 24 24 25 26 26 25 23 21 21 23 24 24 24 25 24 25 27 28 27 26 25 24 23 21 20 19 21 21
0 1 4 5 6 8 10 8 4 3 2 2 3 3 0 3 5 5 7 7 8 9 11 17 24 26 27 28 27 26 25 24 23 23 23 23 23 22 20 19 20 21 22 23 23 24 26 27 29 30 31 31 30 29 29 28 27 27 30 31 31 30 30 29 27 26 25 24 25 24 24 25 25 26 25 24 22 21 23 25 25 26 26 25 26 28 28 28 26 24 24 22 21 20 18 19 20
4 2 2 2 6 7 7 7 4 2 4 2 4 3 0 4 3 2 6 6 8 12 13 16 25 29 30 30 29 28 27 26 25 25 25 25 23 22 20 20 22 22 22 22 23 25 26 27 28 29 30 30 30 29 29 28 27 28 30 32 33 32 31 30 29 28 26 26 26 25 25 25 25 25 24 24 23 21 23 25 26 27 27 26 27 28 28 27 25 24 24 22 20 19 18 18 19
5 1 4 3 3 4 4 5 3 2 3 2 6 5 2 4 3 2 4 5 9 12 12 16 27 32 32 32 31 30 28 27 26 26 26 25 24 22 20 21 23 23 22 23 25 25 26 26 27 28 29 29 30 29 29 28 27 29 31 32 34 34 33 32 30 29 28 27 27 27 26 25 25 25 24 24 23 22 22 24 26 27 27 27 28 28 28 26 25 24 23 21 20 19 18 18 18
3 6 5 5 5 4 3 2 3 4 1 5 6 8 5 3 4 4 5 6 8 10 8 12 22 30 33 34 32 31 29 28 27 26 26 25 24 22 22 23 24 24 24 25 26 26 26 26 27 28 28 29 29 29 29 28 28 30 32 33 34 35 35 33 32 31 30 28 28 28 27 27 26 26 25 25 24 23 22 23 24 26 26 27 28 28 27 26 25 24 23 21 20 19 19 19 19
4 4 4 4 4 4 4 4 4 3 3 6 4 5 5 3 5 5 8 8 6 8 8 9 17 27 33 35 33 31 30 28 27 27 27 26 26 25 25 26 26 25 27 27 27 27 26 27 28 29 29 29 29 29 29 29 29 31 32 33 34 36 36 34 32 31 30 29 29 28 29 29 28 27 26 26 24 23 23 23 24 25 26 26 26 26 26 25 25 24 23 22 20 20 19 19 20
6 4 5 4 2 4 3 3 2 1 5 4 1 1 2 5 6 6 10 11 9 11 13 13 20 28 32 34 33 32 30 29 29 28 28 28 28 28 28 28 28 27 28 28 27 27 27 28 29 29 29 29 30 30 30 30 30 31 33 34 35 36 38 35 33 31 31 29 29 29 30 30 30 30 28 27 26 24 24 24 25 26 26 26 26 26 26 25 25 25 24 22 21 21 20 20 21
6 3 4 3 3 3 1 3 2 3 5 3 2 2 2 5 5 4 7 9 12 14 15 16 20 25 30 31 31 31 31 30 30 29 29 29 29 29 29 29 29 29 29 28 28 28 28 28 29 29 29 30 31 31 31 30 30 31 33 34 35 36 39 37 33 31 31 30 29 29 30 31 31 31 30 29 27 26 25 26 26 26 26 26 26 26 26 25 25 25 24 23 22 22 21 22 22
3 2 4 3 4 4 3 3 2 3 5 5 3 1 3 3 3 4 5 7 8 12 12 13 15 19 24 26 28 30 31 30 30 31 30 29 29 29 30 31 30 30 29 28 28 28 28 28 29 29 29 30 31 31 31 30 29 31 33 34 35 36 39 37 33 30 30 29 29 29 30 31 32 31 31 30 28 27 27 27 26 26 26 26 27 27 27 26 25 24 24 24 24 23 23 24 24
3 1 4 1 2 4 2 3 5 3 2 4 2 2 5 4 2 3 3 4 6 10 12 13 14 16 19 24 29 30 31 31 31 31 31 30 30 30 32 31 31 30 28 28 27 27 28 28 28 29 30 30 30 30 30 30 30 31 32 34 35 37 38 36 32 30 29 29 29 29 30 31 31 32 31 30 29 28 27 27 26 26 26 27 27 27 27 26 25 24 24 25 24 24 25 25 25
1 2 0 3 3 5 3 1 0 3 0 3 2 3 4 3 3 3 4 4 6 8 12 15 17 18 19 25 29 31 32 32 31 32 31 30 30 31 32 31 30 28 27 27 27 27 28 28 28 29 30 30 30 30 30 30 29 30 32 33 35 37 38 35 31 29 30 29 29 29 29 31 31 32 32 30 29 28 27 26 27 27 27 28 28 27 27 26 24 24 25 25 26 25 26 27 27
2 1 2 2 1 4 4 1 4 3 1 4 2 4 5 3 3 4 3 5 8 9 12 16 18 20 23 28 30 31 32 31 31 31 31 30 30 30 30 29 27 26 26 26 27 27 27 27 28 29 29 29 29 29 29 28 29 30 33 34 36 38 38 34 30 30 30 30 30 29 29 31 32 32 31 30 29 28 27 27 28 29 29 28 28 27 26 24 23 25 26 26 27 27 28 28 27
4 4 3 3 2 0 1 1 0 1 2 4 5 5 4 4 5 4 4 8 10 10 11 12 17 23 28 31 33 33 32 32 32 32 31 31 30 29 27 25 25 24 25 26 26 26 27 27 28 28 28 29 28 28 28 28 29 31 33 35 37 38 37 33 30 30 31 31 31 30 30 31 32 31 30 29 28 27 27 29 30 31 30 28 27 27 26 24 25 26 28 28 28 28 29 29 28
3 3 1 2 3 3 1 1 3 2 2 3 4 5 3 6 6 6 8 10 10 10 9 11 20 29 32 34 34 33 33 33 33 32 32 30 27 25 23 23 24 24 25 25 25 26 26 26 26 27 27 28 27 27 27 29 31 32 34 36 38 38 35 31 29 30 31 32 31 31 31 32 32 31 29 28 28 28 29 30 32 32 30 27 27 27 26 26 27 29 29 30 30 29 30 30 29
1 2 2 2 1 1 0 1 2 3 2 2 2 5 7 7 5 7 10 10 10 12 11 13 23 32 34 34 33 31 31 31 31 30 28 26 24 23 23 24 25 25 25 25 25 25 25 25 26 26 26 26 26 27 28 30 31 33 36 38 38 36 32 29 29 30 31 31 31 30 31 31 31 30 29 28 29 30 30 32 33 32 29 27 27 27 28 28 30 31 31 31 31 31 31 31 30
4 2 3 3 1 1 1 3 3 2 3 4 2 4 9 6 5 7 9 8 10 15 16 16 24 31 32 31 31 30 30 29 28 25 24 24 24 24 24 25 26 26 26 25 25 25 26 26 26 26 26 26 27 28 29 30 32 35 37 38 36 33 30 28 29 30 31 31 30 30 30 31 31 30 29 29 30 31 32 33 33 31 28 26 27 28 29 31 32 33 33 32 32 31 31 31 30
Wind_Direction
238 213 186 172 172 159 163 162 120 297 156 270 250 208 251 233 122 106 70 83 104 320 51 48 350 235 136 113 111 91 60 48 170 94 144 148 149 160 163 171 178 171 163 168 173 171 150 132 128 122 116 104 100 94 87 90 96 105 110 96 79 75 71 69 67 66 65 64 65 65 59 55 55 58 60 63 63 60 59 54 51 49 45 43 46 44 38 36 32 33 25 22 31 28 27 36 60
229 191 178 186 181 157 163 169 152 305 84 300 258 178 220 15 83 140 177 184 171 188 138 104 90 102 103 101 96 72 51 55 109 116 125 147 153 158 172 178 182 172 162 168 172 176 146 129 135 119 108 104 98 96 97 110 113 100 94 86 79 76 72 69 69 69 65 65 65 64 60 56 55 55 55 58 59 61 60 57 54 49 48 47 44 46 43 41 35 29 18 26 35 20 18 33 57
218 184 177 190 187 165 159 160 157 158 147 252 265 235 194 108 153 181 193 203 196 168 150 130 95 89 98 86 57 59 71 82 110 120 130 153 158 157 175 179 181 173 160 164 167 182 144 133 139 116 112 108 100 107 110 114 105 91 86 81 79 74 71 70 69 71 67 65 65 64 63 59 57 55 54 54 51 55 57 59 62 51 45 45 43 44 45 48 41 31 24 27 31 20 21 28 44
203 181 170 164 149 72 57 118 160 136 169 236 274 267 215 157 178 187 187 189 180 167 164 149 85 51 83 79 53 72 81 107 123 127 138 159 165 158 169 174 177 173 156 155 154 154 138 133 126 114 112 103 105 120 102 90 92 91 86 83 87 81 73 69 65 68 68 64 63 63 62 61 59 56 54 53 46 47 49 47 51 47 42 38 35 38 40 43 40 37 32 24 23 25 29 28 34
180 169 156 134 117 103 75 103 108 122 200 202 243 262 228 180 177 183 177 167 166 178 188 161 108 84 81 63 42 73 79 117 134 136 144 161 171 160 166 173 173 171 158 149 126 107 133 130 119 115 108 106 117 118 91 86 88 89 86 88 92 88 85 76 69 67 66 66 64 61 59 59 59 57 56 54 48 47 47 44 44 42 42 40 35 33 35 40 41 38 33 22 18 22 27 29 30
169 159 155 146 124 136 119 109 23 254 238 187 225 257 197 174 176 167 155 162 164 183 193 159 129 105 83 57 53 67 87 115 134 145 154 160 164 163 167 171 169 168 158 136 108 117 128 123 118 115 110 111 107 91 92 95 90 90 87 87 88 84 85 77 71 68 65 63 55 50 49 50 50 50 51 50 46 44 43 40 36 30 33 34 31 26 23 28 32 33 29 18 11 16 20 19 20
175 163 155 143 107 79 123 152 199 244 245 199 219 244 187 167 167 153 141 152 136 153 138 130 126 106 76 46 55 59 83 114 137 154 158 152 158 166 168 169 169 162 148 124 119 125 123 116 117 114 112 112 105 102 102 101 95 93 87 85 86 79 80 78 71 63 56 48 42 43 43 44 44 43 44 42 38 36 33 29 25 21 23 20 19 15 10 10 10 13 10 3 359 5 7 1 5
186 177 84 115 96 31 122 177 210 214 246 240 242 224 174 155 152 146 149 153 139 136 114 123 123 98 51 62 66 60 85 115 143 156 151 148 158 165 167 170 166 149 132 126 127 125 120 118 118 114 117 122 126 121 103 97 92 86 83 80 79 74 74 71 57 46 43 41 40 42 41 42 40 39 38 36 33 29 25 21 18 15 15 12 10 7 2 360 358 359 355 351 349 351 349 345 347
194 188 140 128 161 119 210 213 242 242 269 309 347 53 117 145 154 152 155 130 118 94 85 151 136 104 83 76 74 78 92 118 142 146 147 154 161 162 164 168 165 141 129 128 124 119 117 120 119 115 118 119 117 114 100 91 87 83 83 77 75 74 66 50 41 39 40 39 40 39 38 38 36 36 35 32 28 24 21 15 12 8 7 6 3 0 356 353 350 349 346 343 340 337 335 333 331
198 201 183 151 157 170 277 314 323 275 297 331 5 31 66 134 150 141 133 102 96 88 79 101 107 109 98 75 75 91 101 125 140 138 147 160 160 161 157 153 157 138 132 127 122 120 121 123 116 112 109 112 112 109 102 90 87 83 81 77 72 68 55 41 40 39 37 37 36 35 33 31 29 31 29 25 20 16 14 10 7 3 1 359 356 354 351 349 346 343 340 337 333 330 328 324 322
206 219 190 94 116 201 248 249 229 258 315 340 24 32 54 104 111 97 96 84 82 95 81 76 98 103 92 78 88 104 120 138 137 131 141 156 158 158 148 136 136 133 133 129 128 130 133 135 127 124 117 113 110 101 96 88 86 81 77 73 63 57 49 41 39 36 34 32 29 27 23 21 19 19 17 12 8 7 7 5 3 359 357 354 352 349 346 344 341 338 335 331 328 324 323 320 318
226 202 124 104 186 215 209 155 182 216 334 359 20 24 51 75 86 80 79 67 49 69 41 57 127 109 85 81 105 122 132 134 132 129 136 145 148 148 139 126 125 127 132 135 137 141 144 143 138 137 123 103 95 86 81 75 70 64 60 55 47 44 42 37 32 29 25 22 20 14 8 8 9 7 5 359 353 355 358 358 358 355 352 350 347 345 342 340 337 335 331 327 324 319 319 317 316
223 167 100 153 193 197 181 145 173 132 6 21 38 33 53 52 60 84 82 57 29 43 32 82 141 109 92 106 117 133 125 126 134 133 139 139 137 133 127 117 115 122 130 140 143 145 139 121 111 113 98 79 73 64 58 53 47 43 42 41 39 38 38 33 24 21 15 12 6 358 358 1 1 359 356 350 344 344 348 351 351 349 347 345 342 340 337 337 335 333 330 327 323 319 318 315 315
217 194 115 204 329 199 184 137 175 112 49 327 44 51 59 48 59 73 78 59 22 32 53 103 135 100 112 122 119 131 122 136 142 138 141 130 126 117 112 103 97 102 107 117 118 121 109 94 87 84 78 67 61 59 58 52 48 46 43 41 42 44 40 23 3 4 4 359 347 341 350 354 353 352 346 339 338 339 343 345 346 345 342 340 338 336 334 333 332 330 330 327 324 321 318 316 313
210 206 105 127 350 314 260 130 144 122 119 3 70 76 66 56 75 66 60 70 34 50 100 96 113 106 135 143 132 136 132 145 147 144 139 121 117 108 103 98 91 89 84 82 86 95 99 94 86 80 72 63 62 65 65 63 66 63 59 54 50 46 20 0 354 355 353 341 323 328 337 337 339 339 335 334 338 340 342 342 341 340 336 334 333 332 331 331 329 327 327 323 321 319 317 315 312
194 184 83 77 309 298 279 133 95 113 102 14 87 90 74 59 76 68 56 80 61 62 83 65 77 115 134 133 134 140 138 145 146 144 137 122 115 105 100 98 96 92 88 88 88 92 94 89 86 84 79 74 78 81 78 77 82 80 78 71 48 31 357 352 347 341 335 327 316 324 327 327 330 331 332 334 338 338 337 336 334 333 330 329 329 327 327 328 327 323 323 319 318 317 313 312 310
171 148 79 51 231 258 267 159 134 127 97 11 54 92 102 81 77 75 66 73 67 65 72 70 88 111 119 123 132 139 139 144 147 145 134 121 113 106 106 111 115 112 110 109 103 103 103 98 97 101 95 90 97 102 102 96 96 101 103 82 30 14 355 347 336 336 335 331 321 322 322 323 327 328 329 330 330 330 329 329 328 327 325 325 324 324 323 324 324 320 318 316 316 317 314 311 307
160 119 113 189 204 265 285 219 153 109 98 37 48 77 107 100 75 80 65 60 67 72 73 83 95 104 111 120 130 136 140 145 147 141 125 117 116 115 117 124 131 130 128 124 123 129 131 129 127 126 116 112 116 114 113 104 103 106 95 47 19 357 344 337 327 332 334 334 329 321 319 321 324 323 324 323 323 324 324 325 325 325 325 323 321 321 321 319 319 315 313 313 316 317 315 312 307
171 101 105 216 204 90 349 329 112 107 124 88 65 70 71 56 62 82 75 50 56 66 68 87 92 94 106 116 126 133 139 140 136 131 124 123 125 122 118 118 124 127 124 120 122 126 130 137 143 146 135 129 129 118 114 104 97 87 40 328 334 327 323 321 319 324 326 328 324 319 317 317 318 318 319 319 319 320 321 323 324 326 325 323 320 319 318 316 315 313 310 310 312 314 315 313 309
191 110 110 232 196 115 22 46 108 121 117 96 74 74 61 49 74 90 91 59 46 44 40 78 83 83 98 112 125 134 137 136 135 134 131 130 130 127 123 119 121 122 122 123 123 121 123 129 135 141 139 140 144 130 131 128 197 275 288 290 296 299 304 307 308 311 315 317 314 313 313 312 315 315 316 316 317 319 321 322 323 323 323 321 320 318 317 317 316 314 312 310 309 310 312 312 308
184 131 156 194 171 81 37 78 110 114 104 98 86 80 67 57 67 81 90 68 35 29 43 75 84 88 100 110 121 131 134 132 133 135 133 131 130 129 126 122 121 121 126 132 129 124 122 125 129 133 140 149 161 171 207 245 251 264 268 273 279 282 289 293 297 304 309 310 309 311 311 313 315 315 317 317 318 320 322 322 322 321 321 321 321 319 318 318 316 314 312 311 308 307 308 309 306
127 87 110 154 145 77 63 97 106 105 98 94 77 77 86 70 59 64 79 77 45 42 65 90 94 97 104 109 118 126 128 127 128 129 128 128 127 126 124 123 124 126 136 139 130 127 125 127 131 134 150 167 186 211 229 242 251 263 263 265 269 273 281 288 295 300 307 311 314 316 316 316 318 320 322 321 321 321 322 322 321 321 321 322 321 320 319 318 316 313 311 310 308 307 306 307 306
129 52 50 102 114 91 97 102 102 103 91 81 80 90 98 84 62 64 75 76 82 78 88 98 97 102 107 113 118 120 119 122 123 122 125 126 126 124 125 127 128 133 141 135 127 129 130 132 137 149 176 190 206 218 230 244 250 259 262 266 270 274 284 293 300 306 316 320 321 323 323 321 322 324 323 324 322 321 322 321 320 319 320 321 320 319 319 318 315 313 312 310 308 306 306 305 305
115 81 61 84 97 96 103 101 98 96 90 89 95 92 87 87 81 70 75 79 87 91 96 100 103 107 112 113 111 112 114 117 118 119 123 124 124 125 126 129 128 133 137 129 126 133 135 138 145 174 199 209 218 221 245 248 238 242 249 268 286 303 314 318 326 333 333 328 326 326 327 325 324 324 324 323 322 322 322 320 319 318 319 320 319 318 317 315 314 312 311 310 308 307 307 306 304
78 116 100 91 96 100 101 98 96 94 95 95 90 84 83 89 88 73 72 83 90 98 101 102 107 108 110 107 105 109 111 113 115 116 119 118 121 124 124 125 125 132 133 125 129 136 136 145 164 189 191 189 201 219 242 233 212 232 264 305 330 341 339 343 347 343 337 332 330 328 328 327 325 325 325 324 323 322 322 320 319 318 318 318 317 315 314 312 311 309 309 308 307 306 306 305 303
79 119 116 106 104 107 102 96 96 97 97 93 84 79 82 87 83 66 65 86 94 106 104 102 108 105 103 102 105 108 108 110 112 113 114 114 119 121 118 120 126 128 125 125 133 133 130 145 164 164 154 137 139 175 198 176 163 341 350 351 351 348 344 346 347 341 336 333 331 330 330 329 327 326 326 324 323 322 320 319 318 317 317 316 314 313 311 309 307 306 305 304 304 303 302 302 301
107 107 107 110 112 111 105 102 100 96 93 92 88 64 52 65 91 69 70 92 102 110 100 101 105 99 99 101 104 105 107 108 109 114 114 116 118 117 115 119 126 122 124 135 133 127 130 140 143 129 118 105 98 87 68 46 19 5 359 353 347 344 344 343 343 340 336 334 332 332 332 330 328 326 326 324 322 321 319 317 316 315 314 312 311 309 307 305 303 302 301 301 300 299 299 298 298
112 104 93 94 104 107 105 110 107 95 94 93 91 71 47 52 83 92 99 99 109 109 97 99 100 97 100 102 104 105 107 107 113 121 118 119 117 117 122 123 129 131 136 133 122 124 126 117 104 94 82 69 58 45 35 20 8 3 356 350 346 344 344 341 340 339 336 333 331 330 330 329 327 325 324 323 320 319 317 315 313 312 310 309 307 305 303 301 299 298 297 296 295 295 295 294 292
119 107 101 103 103 97 85 113 122 106 120 104 82 66 42 38 81 104 107 106 110 104 97 98 99 101 104 105 107 107 109 114 123 123 118 120 119 127 130 123 131 136 128 115 116 121 108 95 84 73 63 49 35 26 16 7 360 356 352 348 344 343 342 339 338 337 335 333 330 329 328 327 325 323 322 320 318 317 315 313 311 309 307 305 303 301 299 297 295 294 292 291 290 289 289 288 287
128 106 112 145 101 31 16 42 139 97 74 268 310 59 48 47 102 114 111 111 109 99 97 99 101 105 106 109 111 110 114 120 121 117 118 122 122 129 126 123 125 123 117 114 120 112 92 83 71 55 42 24 13 7 358 354 350 347 346 344 342 339 338 338 336 335 333 331 329 327 325 324 322 320 319 317 315 313 311 309 307 306 304 302 300 298 296 294 292 291 290 289 288 287 287 286 286
115 94 84 93 98 54 26 25 25 62 21 16 115 100 100 112 103 125 125 116 112 100 99 103 105 109 110 113 115 115 117 118 120 119 120 122 122 124 122 122 120 118 118 117 117 97 80 68 52 25 12 1 353 350 345 344 343 341 340 339 338 336 335 334 333 331 330 329 327 325 323 321 319 317 315 313 311 309 307 305 303 302 300 298 296 295 293 292 291 290 289 288 286 286 285 285 285
51 100 327 3 98 173 30 20 14 102 47 40 83 111 114 118 110 130 128 119 115 106 105 108 109 113 115 119 120 120 121 122 126 125 125 126 125 126 126 125 122 123 120 111 103 81 56 33 19 360 354 349 344 343 341 340 337 336 335 334 334 332 332 330 329 328 326 326 325 322 320 318 316 314 312 310 307 305 304 302 300 298 297 295 294 293 292 291 290 289 288 288 287 285 285 285 285
3 101 149 0 120 157 3 20 17 41 67 24 51 129 132 122 128 132 130 122 115 112 114 115 117 121 122 125 127 127 129 130 131 130 133 134 133 133 130 129 128 125 118 105 85 49 11 1 355 347 344 340 339 338 336 335 333 333 331 330 330 329 329 328 326 326 324 324 323 321 319 316 315 312 310 307 305 303 301 299 298 297 296 295 294 294 293 293 292 291 290 289 289 289 288 288 287
334 37 90 81 132 114 105 31 23 41 74 46 58 105 118 133 133 132 135 128 120 121 125 127 130 131 131 134 135 136 138 138 138 139 141 142 141 140 137 136 135 131 125 102 34 1 347 344 341 339 338 335 334 333 332 332 330 330 329 328 328 327 327 326 325 324 323 323 322 320 317 315 314 311 309 306 303 302 300 299 298 297 297 297 297 297 296 296 294 293 292 292 293 293 294 293 292
251 25 102 88 81 86 82 45 18 50 71 76 79 93 110 130 134 134 136 133 127 131 137 140 142 143 144 145 145 147 149 148 149 150 152 153 152 152 152 152 151 156 142 335 331 335 335 333 334 335 333 332 333 332 331 330 328 328 327 326 326 327 327 327 326 324 324 324 323 321 317 316 314 312 311 307 304 304 302 301 299 299 299 299 300 301 301 299 297 296 295 295 296 296 298 299 298
166 170 140 126 77 62 69 62 74 81 73 60 82 106 127 141 146 139 139 141 135 139 147 150 154 157 157 158 159 159 160 159 158 160 163 166 169 172 175 185 199 231 293 316 320 325 325 326 329 330 330 331 332 332 330 329 328 327 327 327 328 330 332 331 329 327 326 327 325 322 319 318 316 315 314 310 308 308 306 304 302 301 301 301 304 306 307 307 304 303 302 302 302 300 301 303 303
134 110 83 95 96 79 91 126 112 87 78 36 73 109 131 155 168 156 148 145 144 149 156 160 166 170 170 171 171 171 171 169 168 173 179 182 188 195 202 217 235 257 284 302 311 317 319 323 326 328 331 332 332 332 331 331 329 328 328 328 329 332 333 332 330 328 326 326 325 321 319 318 316 316 315 312 312 312 309 307 304 304 304 303 307 311 313 313 312 310 308 307 307 306 306 307 308
87 100 88 63 88 104 80 113 300 29 89 104 116 110 126 168 172 168 160 155 163 167 168 173 178 179 182 182 179 180 179 179 182 186 193 198 204 213 223 236 253 268 283 297 306 313 318 323 325 327 331 333 333 334 333 333 331 330 330 330 331 332 333 332 330 328 325 324 322 318 317 316 314 315 314 312 312 311 309 308 306 306 306 306 308 311 313 313 313 313 311 309 308 309 311 313 315
74 87 98 69 87 109 69 42 350 10 97 156 180 128 149 203 184 179 178 179 185 185 184 186 186 186 189 190 186 186 188 191 195 199 205 210 217 225 235 246 260 273 286 296 303 310 315 318 322 326 330 333 334 334 334 333 331 331 331 331 331 332 333 332 329 327 324 321 319 316 316 315 314 314 314 312 310 309 307 306 306 306 307 308 309 311 313 314 315 315 315 312 309 310 310 312 318
70 75 92 119 152 130 110 12 9 11 79 148 164 129 143 241 260 210 198 194 193 196 201 199 196 198 199 199 197 196 199 200 203 209 214 219 225 233 242 251 262 276 286 294 300 305 309 313 318 323 328 332 332 333 334 333 329 328 328 328 329 329 331 329 326 324 320 318 316 314 315 315 314 314 313 311 307 305 304 304 304 305 306 308 308 310 312 315 317 317 317 314 313 313 311 312 319
20 85 108 151 172 110 119 154 117 42 41 122 143 90 326 228 227 239 215 197 194 196 199 202 204 209 211 208 208 210 213 213 214 217 221 226 232 238 245 254 265 276 283 291 297 302 306 310 315 320 325 329 330 331 333 331 327 325 326 326 327 328 330 330 327 324 322 319 316 315 315 314 313 312 312 309 304 301 300 300 302 303 304 306 306 307 310 313 315 316 317 315 315 317 313 314 319
359 287 167 170 155 110 121 154 141 65 21 216 168 77 294 223 212 227 215 200 205 198 197 203 207 210 211 210 212 216 220 224 227 228 231 236 240 245 250 257 266 276 283 289 295 300 305 310 314 318 322 324 325 327 331 330 326 327 329 330 332 333 334 334 332 328 326 321 316 314 312 310 309 308 308 307 302 297 295 295 298 299 300 302 303 303 305 308 311 313 316 315 315 316 313 312 316
24 263 169 147 129 127 147 165 140 97 199 219 172 159 267 257 232 222 199 207 226 215 208 209 208 209 212 214 216 217 219 223 228 233 238 241 245 250 255 261 269 277 283 288 295 302 308 311 314 316 318 319 320 324 329 330 326 327 331 333 335 336 335 334 333 329 326 320 315 313 310 307 306 305 305 303 300 294 290 289 290 292 294 297 298 299 300 304 307 310 314 314 314 314 314 313 316
205 213 131 142 140 147 168 172 170 185 132 84 159 163 46 279 257 209 176 200 235 235 230 220 213 212 214 218 219 220 222 224 227 232 238 243 248 254 260 267 273 278 282 289 297 304 308 310 311 312 313 315 317 321 327 329 326 325 330 333 335 336 333 331 330 328 325 319 314 311 308 306 304 303 302 301 298 293 286 284 286 288 290 293 294 295 298 301 304 308 310 312 311 312 315 315 315
256 219 103 202 179 165 166 155 166 184 85 58 236 188 126 267 289 88 158 203 242 236 231 224 218 216 217 220 221 224 227 229 232 237 241 246 251 256 261 266 272 277 282 288 294 299 302 304 306 308 310 312 314 317 323 327 325 324 328 331 334 335 331 328 327 325 323 318 314 311 307 305 303 302 300 298 296 292 285 281 283 285 287 290 292 293 296 299 303 306 307 309 308 310 314 314 313
290 38 58 44 98 111 114 127 134 62 68 244 230 181 183 268 276 120 166 222 241 235 229 222 220 219 219 221 223 225 227 230 234 239 243 249 254 258 261 264 271 276 279 282 286 291 296 299 302 304 306 309 311 314 319 323 323 323 326 329 332 333 330 326 324 322 321 317 314 312 309 307 306 303 300 297 295 291 284 280 281 283 286 288 290 293 295 298 300 303 304 304 305 307 310 311 311
350 53 61 52 42 43 61 78 90 70 324 257 219 179 173 277 260 187 188 217 219 217 224 221 218 219 221 222 223 224 226 229 233 238 244 251 256 257 257 263 272 274 273 275 280 287 292 296 300 301 302 306 308 311 315 318 321 323 324 326 329 331 329 324 321 320 319 317 314 312 311 309 309 306 303 299 296 292 286 282 281 282 285 287 290 292 294 297 299 301 301 300 301 304 308 309 309
49 75 89 81 18 9 26 359 39 85 254 258 237 183 162 221 259 218 214 230 215 200 209 210 210 215 219 222 224 225 228 233 236 240 245 249 252 252 254 261 268 268 269 273 279 284 290 295 297 297 299 303 305 308 311 315 320 323 323 323 325 328 327 323 319 318 318 316 314 312 310 310 310 309 306 303 298 294 290 288 287 286 286 287 289 291 294 296 298 298 298 298 300 303 307 309 309
30 41 57 74 12 7 18 330 0 183 242 255 270 160 175 233 251 226 219 231 225 211 213 211 209 213 218 221 224 227 231 235 239 241 245 247 248 250 255 261 265 266 269 274 278 282 287 291 293 294 297 300 302 306 308 312 317 321 321 320 321 324 325 321 317 317 317 315 312 310 309 309 310 310 308 306 302 298 295 294 293 291 290 290 291 292 294 295 295 296 296 297 299 302 306 308 308
6 41 79 97 86 52 302 285 325 273 261 281 6 34 281 276 271 228 225 238 226 215 219 222 220 219 221 224 226 229 233 236 240 242 245 248 250 253 258 262 264 265 270 274 277 280 284 287 289 291 293 297 300 303 305 307 312 317 318 317 317 320 322 319 315 314 314 312 310 307 306 306 307 308 308 306 303 300 298 297 294 292 292 292 292 292 292 293 293 294 295 296 298 301 305 305 305
324 156 127 126 139 139 197 233 224 253 279 296 328 345 211 238 273 246 263 268 226 207 214 223 227 227 228 231 231 232 235 238 241 244 246 251 254 257 259 261 262 265 270 275 277 279 282 285 287 288 291 294 297 300 301 303 309 313 314 314 313 316 319 316 311 311 312 311 308 304 302 302 303 305 306 304 302 300 298 296 293 292 292 292 293 293 293 292 292 294 295 296 298 301 303 302 303
292 129 89 70 177 146 149 198 187 187 305 302 289 242 215 211 258 278 311 297 216 206 216 220 227 229 229 234 234 233 237 241 243 245 248 252 255 257 258 259 262 266 271 274 276 280 283 284 285 286 290 293 295 298 299 301 306 308 309 310 310 314 316 313 310 311 311 310 306 301 299 300 301 303 304 303 301 298 296 295 295 295 294 294 294 294 294 292 291 294 296 296 297 300 302 302 303
317 56 67 226 175 120 108 284 9 91 350 285 256 253 283 318 304 313 352 309 252 229 228 227 229 230 228 231 232 233 237 241 244 246 249 253 255 256 256 257 261 266 271 275 280 283 283 283 283 285 289 292 295 297 297 299 302 304 306 309 310 313 316 313 311 311 311 309 305 301 299 299 300 301 301 300 300 297 296 297 299 299 297 295 295 296 296 294 293 295 297 298 299 301 302 301 301
103 102 214 205 92 78 96 45 359 34 256 274 268 251 281 316 292 316 333 270 256 243 234 235 235 233 233 233 233 236 240 243 246 248 251 254 256 255 255 257 263 269 274 279 283 283 281 280 281 284 288 292 294 294 294 296 299 302 306 308 310 314 315 312 310 310 309 308 306 302 300 299 300 301 299 298 298 297 298 301 303 302 299 297 295 297 297 296 297 298 300 301 301 302 301 299 299
118 157 170 112 101 309 43 94 334 347 270 280 301 290 265 219 227 267 248 231 239 238 230 232 236 234 235 236 237 240 244 245 246 248 250 252 252 252 253 258 265 271 277 281 282 278 276 277 280 284 289 291 291 290 292 295 298 303 307 308 310 312 312 309 307 307 307 307 306 303 301 300 301 300 298 297 297 299 301 303 304 303 300 297 296 298 299 298 299 301 303 303 302 301 300 298 298
62 89 33 48 132 175 193 153 172 178 234 271 313 322 267 225 215 207 216 222 225 226 220 222 230 232 234 237 239 242 244 246 247 248 249 249 249 251 256 262 269 274 279 280 276 273 274 277 281 285 287 287 287 289 292 295 299 303 305 306 308 310 308 306 305 305 305 305 305 303 301 301 301 300 298 297 298 300 301 302 302 302 299 297 298 301 301 300 301 302 303 303 302 301 300 299 299
36 32 330 318 13 143 197 234 157 136 164 214 292 300 266 242 204 192 215 226 216 212 212 219 227 231 235 239 242 245 247 248 249 248 247 247 249 254 259 265 271 276 278 276 272 273 276 279 282 284 284 283 285 288 291 295 300 303 302 304 307 307 305 303 303 302 302 303 303 301 301 300 300 299 299 299 299 299 300 301 301 300 298 298 299 301 302 302 302 302 302 302 301 300 299 299 299
153 172 210 193 191 123 86 289 285 101 156 182 173 278 271 245 180 196 218 221 216 213 212 219 228 232 237 241 244 247 249 249 247 246 246 247 250 256 262 269 274 277 277 275 275 277 280 281 282 282 281 283 286 289 292 297 299 299 300 303 305 304 303 302 301 301 301 301 301 300 300 299 300 301 300 299 298 298 299 300 299 298 296 297 299 301 303 303 302 301 300 300 299 299 298 298 299